Retour au catalogue

FENGYUN 1C DEB

ActifPO
NORAD 37908·DEBRIS·🇨🇳 China

Lancé May 10, 1999 depuis Taiyuan Satellite Launch Center

Loading…

Prochains Passages (prochaines 24 heures)

TLE

VieillissantSource: Space-Track

Époque: Sep 10, 2026, 08:53 UTC

1 37908U 99025ENH 26253.37082822  .00000779  00000-0  26913-3 0  9999
2 37908  99.1204 306.8816 0074730  84.2662 276.7037 14.37293966679627

Suivez FENGYUN 1C DEB en temps réel avec AllMySat

Download on the App Store